Regional Weather Roundup
Issued by NWS

Home | Current Version | Previous Version | Graphics & Text | Print | Product List | Glossary On
Versions: 1 2 3 4 5 6 7 8 9 10 11 12 13 14 15 16 17 18 19 20 21 22 23 24 25 26 27 28 29 30 31 32 33 34 35 36 37 38 39 40 41 42 43 44 45 46 47 48 49 50
000
ASUS43 KLOT 230908
RWRIL

ILLINOIS REGIONAL WEATHER ROUNDUP
NATIONAL WEATHER SERVICE CHICAGO/ROMEOVILLE IL
400 AM CDT WED AUG 23 2017

NOTE: "FAIR" INDICATES FEW OR NO CLOUDS BELOW 12,000 FEET WITH NO
SIGNIFICANT WEATHER AND/OR OBSTRUCTIONS TO VISIBILITY.

* THESE STATIONS ARE NOT UNDER NWS QUALITY CONTROL. THEY ALSO MAY NOT
  REPORT WEATHER SUCH AS PRECIPITATION OR FOG.

ILZ001-002-007-009-015-016-024-231000-
NORTHWEST ILLINOIS

CITY           SKY/WX    TMP DP  RH WIND       PRES   REMARKS
MOLINE         CLEAR     57  51  80 W5        30.08S
SAVANNA*       CLEAR     57  53  85 CALM      30.07S
$$

ILZ003-004-008-010-011-017-018-231000-
NORTH CENTRAL ILLINOIS

CITY           SKY/WX    TMP DP  RH WIND       PRES   REMARKS
ROCKFORD       CLEAR     55  50  83 W5        30.05F
FREEPORT*      CLEAR     54  50  88 W6        30.07S
ROCHELLE*      CLEAR     49  48  96 CALM      30.06S
DE KALB*       CLEAR     56  51  86 NW6       30.05S
PERU*          CLEAR     55  51  88 NW8       30.06S
$$

ILZ005-006-012>014-019>023-231000-
NORTHEAST ILLINOIS

CITY           SKY/WX    TMP DP  RH WIND       PRES   REMARKS
CHICAGO-OHARE  CLEAR     62  50  64 NW9       30.01S
CHICAGO-MIDWAY CLEAR     62  51  67 W6        30.02R
AURORA         CLEAR     53  51  93 NW3       30.04S
LANSING*       CLEAR     60  50  70 W3        30.02S
JOLIET*        CLEAR     60  53  77 CALM      30.03S
WAUKEGAN       CLEAR     58  52  80 W3        30.00S
DUPAGE AIRPORT CLEAR     57  52  83 NW7       30.02S
KANKAKEE*      CLEAR     55  54  94 W8        30.04S
WHEELING       CLEAR     60  53  77 W5        30.03S
MORRIS*        CLEAR     53  51  93 NW7       30.03S
ROMEOVILLE*    CLEAR     57  51  79 NW8       30.03S
NORTHERLY ISL    N/A     66  50  56 W9          N/A
$$

LMZ740>746-231000-
SOUTHERN LAKE MICHIGAN

STATION/POSITION SKY/WX   TEMP    WIND        PRES    VSBY  WAVE
                          AIR SEA DIR/SP/G                  HT/PER
                          (F)     (DEG/KT/KT) (MB)    (MI)  (FT/S)
SOUTHERN BUOY              68 71  320/ 16/ 17 1014.7          4/ 5
WILMETTE HARBOR            66 73  290/ 12/ 16   N/A           2/ 4
HARRISON CRIB              67     300/ 15/ 16   N/A
CALUMET HARBOR             63     280/  3/  6 1015.7R
BURNS HARBOR               70     320/ 15/ 19 1016.3R
MICHIGAN CITY              69     310/ 17/ 19   N/A
MICHIGAN CITY 6N           70 73  320/ 16/ 21   N/A           5/ 5
ST. JOSEPH                 70 73  350/ 16/ 21 1015.2          5/ 5
$$

ILZ025>027-034>036-040-047-049-050-058-095>099-231000-
WEST-CENTRAL ILLINOIS

CITY           SKY/WX    TMP DP  RH WIND       PRES   REMARKS
QUINCY         CLEAR     56  53  90 NW6       30.11S
GALESBURG*     CLEAR     53  51  94 W5        30.10S
MACOMB*        CLEAR     54  53  96 W6        30.12S
JACKSONVILLE*  CLEAR     55  53  94 NW3       30.09S
PITTSFIELD*    CLEAR     58  54  86 W5        30.11F
$$

ILZ028>032-037-038-041>044-048-051>054-059>061-231000-
CENTRAL ILLINOIS

CITY           SKY/WX    TMP DP  RH WIND       PRES   REMARKS
PONTIAC        CLEAR     54  54  99 CALM      30.06S
BLOOMINGTON    CLEAR     56  53  90 W6        30.08R
DECATUR        PTCLDY    60  55  83 NW9       30.06F
PEORIA         CLEAR     57  54  89 NW5       30.08R
LACON*         CLEAR     53  52  97 CALM      30.06S
LINCOLN*       PTCLDY    58  55  89 NW3       30.07S
SPRINGFIELD    PTCLDY    57  55  93 W3        30.09S
TAYLORVILLE    CLEAR     56  55  94 NW3       30.07F
$$

ILZ033-039-045-046-055>057-062-063-231000-
EAST-CENTRAL ILLINOIS

CITY           SKY/WX    TMP DP  RH WIND       PRES   REMARKS
CHAMPAIGN      CLEAR     56  53  90 NW5       30.05S
RANTOUL*       PTCLDY    58  56  93 NW7       30.05F
MATTOON        CLEAR     57  56  96 NW7       30.04S
PARIS*         CLEAR     55  54  97 NW6       30.05S
$$

ILZ079-100>102-231000-
SOUTHWEST ILLINOIS

CITY           SKY/WX    TMP DP  RH WIND       PRES   REMARKS
ALTON          CLEAR     60  56  88 NW5       30.08S
BELLEVILLE     CLEAR     61  55  81 NW7       30.08S
CAHOKIA*       CLEAR     62  55  77 N3        30.07F
SPARTA*        CLEAR     61  58  87 NW5       30.08S
$$

ILZ064>066-069>071-074>076-080>082-084>086-088>090-092>094-231000-
SOUTH-CENTRAL ILLINOIS

CITY           SKY/WX    TMP DP  RH WIND       PRES   REMARKS
CARBONDALE     CLEAR     62  61  96 NW3       30.06R
CAIRO*         MOCLDY    67  64  87 N7        30.03S
EFFINGHAM*     CLEAR     59  58  97 NW5       30.06S
MARION         CLEAR     64  63  94 CALM      30.06R
MT. VERNON       N/A     58  57  97 CALM      30.05S
CENTRALIA*     CLEAR     58  57  97 NW3       30.05S
SALEM*         CLEAR     59  56  91 N3        30.06S
METROPOLIS*    MOCLDY    66  64  93 N3        30.03F
$$

ILZ067-068-072-073-078-083-087-091-231000-
SOUTHEAST ILLINOIS

CITY           SKY/WX    TMP DP  RH WIND       PRES   REMARKS
LAWRENCEVILLE  CLEAR     60  58  92 NW6       30.03S
FLORA*         CLEAR     61  58  89 NW5       30.04S
FAIRFIELD*     CLEAR     61  58  91 CALM      30.04S
HARRISBURG*    PTCLDY    64  60  86 CALM      30.04S
ROBINSON*      CLEAR     57  56  96 CALM      30.04R
CARMI*         CLEAR     60  59  97 NW3       30.03S
$$

ABBREVIATIONS USED IN REMARKS
   TC - TEMPERATURE IN CELSIUS
  WCI - WIND CHILL INDEX
   HX - HEAT INDEX
  VSB - VISIBILITY
$$




USA.gov is the U.S. government's official web portal to all federal, state and local government web resources and services.